Regional Weather Roundup
Issued by NWS

Home | Current Version | Previous Version | Text Only | Print | Product List | Glossary On
Versions: 1 2 3 4 5 6 7 8 9 10 11 12 13 14 15 16 17 18 19 20 21 22 23 24 25 26 27 28 29 30 31 32 33 34 35 36 37 38 39 40 41 42 43 44 45 46 47 48 49 50
000
ASUS43 KLOT 250810
RWRIL

ILLINOIS REGIONAL WEATHER ROUNDUP
NATIONAL WEATHER SERVICE CHICAGO/ROMEOVILLE IL
300 AM CDT FRI JUL 25 2014

NOTE: "FAIR" INDICATES FEW OR NO CLOUDS BELOW 12,000 FEET WITH NO
SIGNIFICANT WEATHER AND/OR OBSTRUCTIONS TO VISIBILITY.

* THESE STATIONS ARE NOT UNDER NWS QUALITY CONTROL. THEY ALSO MAY NOT
  REPORT WEATHER SUCH AS PRECIPITATION OR FOG.

ILZ001-002-007-009-015-016-024-250900-
NORTHWEST ILLINOIS

CITY           SKY/WX    TMP DP  RH WIND       PRES   REMARKS
MOLINE         PTCLDY    61  55  81 SE10      29.99F
STERLING*      CLEAR     57  52  82 SE5       30.03F
SAVANNA*       CLEAR     58  54  86 CALM      30.01F
$$

ILZ003-004-008-010-011-017-018-250900-
NORTH CENTRAL ILLINOIS

CITY           SKY/WX    TMP DP  RH WIND       PRES   REMARKS
ROCKFORD       CLEAR     57  49  74 S6        30.06F
FREEPORT*      CLEAR     56  51  82 SE9       30.04F
ROCHELLE*      CLEAR     53  50  90 SE5       30.05F
DE KALB*       CLEAR     53  48  84 S6        30.06F
PERU*          CLEAR     60  53  76 SE9       30.06F
$$

ILZ005-006-012>014-019>023-250900-
NORTHEAST ILLINOIS

CITY           SKY/WX    TMP DP  RH WIND       PRES   REMARKS
CHICAGO-OHARE  CLEAR     56  47  71 CALM      30.06F
CHICAGO-MIDWAY CLEAR     62  51  67 SW5       30.07R
AURORA         CLEAR     52  48  86 CALM      30.07F
JOLIET*        CLEAR     51  49  93 CALM      30.08F
WAUKEGAN       PTCLDY    56  49  77 SW3       30.05F
DUPAGE AIRPORT CLEAR     56  50  80 CALM      30.06F
KANKAKEE*      CLEAR     53  51  94 CALM      30.09R
WHEELING       CLEAR     59  49  69 S3        30.08S
MORRIS*        CLEAR     54  52  95 CALM      30.06F
ROMEOVILLE*    CLEAR     53  48  83 S3        30.07F
$$

LMZ740>746-250900-
SOUTHERN LAKE MICHIGAN

STATION/POSITION SKY/WX   TEMP    WIND        PRES    VSBY  WAVE
                          AIR SEA DIR/SP/G                  HT/PER
                          (F)     (DEG/KT/KT) (MB)    (MI)  (FT/S)
SOUTHERN BUOY              62 61  210/  6/  6 1017.8S         0
WAUKEGAN HARBOR            61     250/  5/  6   N/A
HARRISON CRIB              65     200/ 10/ 11   N/A
CALUMET HARBOR             60     210/  2/  4 1017.1F
MICHIGAN CITY              58     210/  1/  2   N/A
MICHIGAN CITY 6N           62 69  200/  6/  8   N/A           1
ST. JOSEPH                 56 54  170/  4/  6   N/A           1
$$

ILZ025>027-034>036-040-047-049-050-058-095>099-250900-
WEST-CENTRAL ILLINOIS

CITY           SKY/WX    TMP DP  RH WIND       PRES   REMARKS
QUINCY         CLEAR     60  54  80 SE8       29.99F
GALESBURG*     PTCLDY    60  55  84 E5        30.00F
MACOMB*        CLEAR     56  55  97 SE7       30.02F
JACKSONVILLE*  CLEAR     60  56  85 SE8       30.04F
PITTSFIELD*    CLEAR     58  55  88 SE3       30.03F
$$

ILZ028>032-037-038-041>044-048-051>054-059>061-250900-
CENTRAL ILLINOIS

CITY           SKY/WX    TMP DP  RH WIND       PRES   REMARKS
PONTIAC        CLEAR     55  55 100 CALM      30.08S
DECATUR        CLEAR     58  54  86 CALM      30.08R
PEORIA         CLEAR     65  52  62 SE3       30.04F
LACON*         CLEAR     60  53  77 SE9       30.04F
LINCOLN*       CLEAR     58  55  90 CALM      30.04F
SPRINGFIELD    CLEAR     58  55  90 SE3       30.05F
TAYLORVILLE    CLEAR     55  54  94 SE3       30.06F
$$

ILZ033-039-045-046-055>057-062-063-250900-
EAST-CENTRAL ILLINOIS

CITY           SKY/WX    TMP DP  RH WIND       PRES   REMARKS
CHAMPAIGN      CLEAR     56  53  90 E3        30.08R
DANVILLE*      CLEAR     54  53  94 CALM      30.06R
RANTOUL*       CLEAR     60  54  80 CALM      30.09R
MATTOON        CLEAR     58  55  90 CALM      30.08R
PARIS*         CLEAR     52  51  97 CALM      30.09R
$$

ILZ079-100>102-250900-
SOUTHWEST ILLINOIS

CITY           SKY/WX    TMP DP  RH WIND       PRES   REMARKS
ALTON          CLEAR     60  59  98 E3        30.06S
BELLEVILLE     CLEAR     58  58  99 N2        30.06R
CAHOKIA*       CLEAR     60  57  89 CALM      30.05R
SPARTA*        CLEAR     57  54  88 CALM      30.06R
$$

ILZ064>066-069>071-074>076-080>082-084>086-088>090-092>094-250900-
SOUTH-CENTRAL ILLINOIS

CITY           SKY/WX    TMP DP  RH WIND       PRES   REMARKS
CARBONDALE     CLEAR     58  56  93 CALM      30.06R
CAIRO*         CLEAR     61  59  91 CALM      30.05S FOG
EFFINGHAM*     CLEAR     56  53  89 CALM      30.08R
MARION         CLEAR     59  57  94 CALM      30.06R
MT. VERNON     CLEAR     55  52  88 CALM      30.07R
CENTRALIA*     CLEAR     54  53  95 CALM      30.07R
SALEM*         CLEAR     56  55  96 CALM      30.07R
METROPOLIS*    CLEAR     57  56  97 CALM      30.05R
$$

ILZ067-068-072-073-078-083-087-091-250900-
SOUTHEAST ILLINOIS

CITY           SKY/WX    TMP DP  RH WIND       PRES   REMARKS
LAWRENCEVILLE  CLEAR     59  57  93 N3        30.07S
FLORA*         CLEAR     56  56  97 CALM      30.07S
FAIRFIELD*     CLEAR     57  57 100 CALM      30.06S
HARRISBURG*    CLEAR     58  58 100 CALM      30.06S
ROBINSON*      CLEAR     55  55  98 CALM      30.07S
CARMI*         CLEAR     59  57  94 CALM      30.05S FOG
$$

ABBREVIATIONS USED IN REMARKS
   TC - TEMPERATURE IN CELSIUS
  WCI - WIND CHILL INDEX
   HX - HEAT INDEX
  VSB - VISIBILITY
$$



USA.gov is the U.S. government's official web portal to all federal, state and local government web resources and services.